When you browse on this site, cookies collect data to enhance your experience and personalize the content and advertising you see.
Visit our Privacy Policy to learn more. By continuing to use the site, you agree to this use of cookies and data.
  • In Lithuania
  • List of Countries
  • For 7 days
  • Water Temperature
  • Weather Map
  • Weather Widgets
  • user-avatar
    Login

    Hourly Weather La Rioja

    Today, 29 February, Saturday

    Time Temperature Precipitation Wind Pressure Humidity
    00:00 +26°C° 0 mm 1 mps 717 mmHg 45%
    01:00 +26°C° 0 mm 1 mps 717 mmHg 48%
    02:00 +25°C° 0 mm 1 mps 718 mmHg 51%
    03:00 +25°C° 0 mm 1 mps 718 mmHg 52%
    04:00 +25°C° 0 mm 1 mps 718 mmHg 52%
    05:00 +24°C° 0 mm 1 mps 718 mmHg 53%
    06:00 +25°C° 0 mm 1 mps 719 mmHg 49%
    07:00 +27°C° 0 mm 2 mps 719 mmHg 46%
    08:00 +28°C° 0 mm 2 mps 720 mmHg 42%
    09:00 +29°C° 0 mm 2 mps 720 mmHg 38%
    10:00 +31°C° 0 mm 2 mps 720 mmHg 34%
    11:00 +33°C° 0 mm 3 mps 720 mmHg 30%
    12:00 +34°C° 0 mm 3 mps 719 mmHg 27%
    13:00 +35°C° 0 mm 3 mps 719 mmHg 25%
    14:00 +36°C° 0 mm 4 mps 718 mmHg 22%
    15:00 +37°C° 0 mm 4 mps 718 mmHg 21%
    16:00 +37°C° 0 mm 5 mps 717 mmHg 20%
    17:00 +38°C° 0 mm 6 mps 716 mmHg 19%
    18:00 +35°C° 0 mm 5 mps 716 mmHg 22%
    19:00 +33°C° 0 mm 4 mps 717 mmHg 25%
    20:00 +29°C° 0 mm 4 mps 717 mmHg 28%
    21:00 +29°C° 0 mm 3 mps 717 mmHg 30%
    22:00 +28°C° 0 mm 2 mps 717 mmHg 33%
    23:00 +27°C° 0 mm 2 mps 718 mmHg 35%

    Tomorrow, 1 March, Sunday

    Time Temperature Precipitation Wind Pressure Humidity
    00:00 +27°C° 0 mm 2 mps 717 mmHg 36%
    01:00 +26°C° 0 mm 2 mps 717 mmHg 37%
    02:00 +26°C° 0 mm 2 mps 717 mmHg 38%
    03:00 +25°C° 0 mm 2 mps 717 mmHg 40%
    04:00 +25°C° 0 mm 1 mps 717 mmHg 42%
    05:00 +24°C° 0 mm 1 mps 716 mmHg 45%
    06:00 +25°C° 0 mm 1 mps 717 mmHg 42%
    07:00 +27°C° 0 mm 2 mps 717 mmHg 39%
    08:00 +28°C° 0 mm 2 mps 717 mmHg 36%
    09:00 +29°C° 0 mm 2 mps 717 mmHg 34%
    10:00 +31°C° 0 mm 3 mps 717 mmHg 32%
    11:00 +33°C° 0 mm 3 mps 717 mmHg 31%
    12:00 +34°C° 0 mm 3 mps 717 mmHg 29%
    13:00 +35°C° 0 mm 4 mps 716 mmHg 27%
    14:00 +36°C° 0 mm 4 mps 715 mmHg 26%
    15:00 +36°C° 0 mm 5 mps 715 mmHg 26%
    16:00 +36°C° 0 mm 6 mps 714 mmHg 26%
    17:00 +36°C° 0 mm 6 mps 714 mmHg 27%
    18:00 +34°C° 0 mm 5 mps 714 mmHg 31%
    19:00 +32°C° 0 mm 5 mps 714 mmHg 36%
    20:00 +29°C° 0 mm 4 mps 714 mmHg 41%
    21:00 +28°C° 0 mm 3 mps 715 mmHg 42%
    22:00 +28°C° 0 mm 3 mps 715 mmHg 43%
    23:00 +27°C° 0 mm 2 mps 716 mmHg 44%

    Day after tomorrow, 2 March, Monday

    Time Temperature Precipitation Wind Pressure Humidity
    00:00 +27°C° 0 mm 2 mps 716 mmHg 44%
    01:00 +26°C° 0 mm 2 mps 715 mmHg 45%
    02:00 +26°C° 0 mm 1 mps 715 mmHg 46%
    03:00 +25°C° 0 mm 1 mps 715 mmHg 46%
    04:00 +25°C° 0 mm 1 mps 715 mmHg 46%
    05:00 +25°C° 0 mm 2 mps 715 mmHg 45%
    06:00 +26°C° 0 mm 2 mps 715 mmHg 43%
    07:00 +27°C° 0 mm 3 mps 716 mmHg 41%
    08:00 +28°C° 0 mm 3 mps 716 mmHg 39%
    09:00 +29°C° 0 mm 3 mps 716 mmHg 36%
    10:00 +30°C° 0 mm 3 mps 716 mmHg 34%
    11:00 +33°C° 0 mm 3 mps 716 mmHg 32%
    12:00 +34°C° 0 mm 3 mps 716 mmHg 31%
    13:00 +35°C° 0 mm 3 mps 715 mmHg 30%
    14:00 +36°C° 0 mm 2 mps 715 mmHg 28%
    15:00 +36°C° 0 mm 2 mps 714 mmHg 28%
    16:00 +36°C° 0 mm 3 mps 714 mmHg 28%
    17:00 +37°C° 0 mm 3 mps 713 mmHg 28%
    18:00 +35°C° 0 mm 3 mps 713 mmHg 32%
    19:00 +33°C° 0 mm 3 mps 713 mmHg 35%
    20:00 +30°C° 0 mm 3 mps 714 mmHg 39%
    21:00 +29°C° 0 mm 3 mps 714 mmHg 42%
    22:00 +28°C° 0 mm 2 mps 714 mmHg 45%
    23:00 +28°C° 0 mm 1 mps 715 mmHg 48%

    3 March, Tuesday

    Time Temperature Precipitation Wind Pressure Humidity
    00:00 +27°C° 0 mm 1 mps 715 mmHg 49%
    01:00 +27°C° 0 mm 1 mps 714 mmHg 50%
    02:00 +26°C° 0 mm 1 mps 714 mmHg 51%
    03:00 +26°C° 0 mm 1 mps 714 mmHg 51%
    04:00 +25°C° 0 mm 2 mps 714 mmHg 51%
    05:00 +25°C° 0 mm 2 mps 714 mmHg 50%
    06:00 +26°C° 0 mm 2 mps 714 mmHg 47%
    07:00 +27°C° 0 mm 2 mps 715 mmHg 43%
    08:00 +29°C° 0 mm 2 mps 715 mmHg 39%
    09:00 +30°C° 0 mm 2 mps 715 mmHg 37%
    10:00 +31°C° 0 mm 2 mps 715 mmHg 34%
    11:00 +34°C° 0 mm 3 mps 715 mmHg 32%
    12:00 +35°C° 0 mm 2 mps 714 mmHg 30%
    13:00 +36°C° 0 mm 2 mps 714 mmHg 29%
    14:00 +37°C° 0 mm 2 mps 713 mmHg 27%
    15:00 +37°C° 0 mm 2 mps 713 mmHg 27%
    16:00 +37°C° 0 mm 2 mps 712 mmHg 27%
    17:00 +37°C° 0 mm 2 mps 711 mmHg 27%
    18:00 +36°C° 0 mm 2 mps 712 mmHg 32%
    19:00 +34°C° 0 mm 2 mps 712 mmHg 36%
    20:00 +31°C° 0 mm 2 mps 712 mmHg 40%
    21:00 +30°C° 0 mm 1 mps 713 mmHg 41%
    22:00 +29°C° 0 mm 1 mps 713 mmHg 43%
    23:00 +29°C° 0 mm 1 mps 713 mmHg 44%

    4 March, Wednesday

    Time Temperature Precipitation Wind Pressure Humidity
    00:00 +28°C° 0 mm 1 mps 713 mmHg 45%
    01:00 +28°C° 0 mm 1 mps 713 mmHg 46%
    02:00 +27°C° 0 mm 1 mps 713 mmHg 47%
    03:00 +27°C° 0 mm 1 mps 713 mmHg 47%
    04:00 +26°C° 0 mm 1 mps 713 mmHg 48%
    05:00 +26°C° 0 mm 2 mps 713 mmHg 49%
    06:00 +27°C° 0 mm 2 mps 714 mmHg 46%
    07:00 +28°C° 0 mm 2 mps 715 mmHg 43%
    08:00 +29°C° 0 mm 3 mps 715 mmHg 39%
    09:00 +31°C° 0 mm 3 mps 715 mmHg 36%
    10:00 +34°C° 0 mm 3 mps 715 mmHg 33%
    11:00 +35°C° 0 mm 3 mps 715 mmHg 30%
    12:00 +36°C° 0 mm 3 mps 715 mmHg 28%
    13:00 +37°C° 0 mm 3 mps 715 mmHg 26%
    14:00 +38°C° 0 mm 2 mps 714 mmHg 24%
    15:00 +38°C° 0 mm 2 mps 713 mmHg 23%
    16:00 +39°C° 0 mm 2 mps 713 mmHg 22%
    17:00 +39°C° 0 mm 1 mps 712 mmHg 21%
    18:00 +36°C° 0 mm 1 mps 712 mmHg 25%
    19:00 +33°C° 0 mm 1 mps 712 mmHg 29%
    20:00 +31°C° 0 mm 1 mps 712 mmHg 33%
    21:00 +30°C° 0 mm 1 mps 713 mmHg 34%
    22:00 +30°C° 0 mm 1 mps 713 mmHg 35%
    23:00 +29°C° 0 mm 1 mps 713 mmHg 36%

    5 March, Thursday

    Time Temperature Precipitation Wind Pressure Humidity
    00:00 +28°C° 0 mm 1 mps 713 mmHg 37%
    01:00 +28°C° 0 mm 1 mps 713 mmHg 37%
    02:00 +27°C° 0 mm 1 mps 713 mmHg 38%
    03:00 +27°C° 0 mm 1 mps 713 mmHg 38%
    04:00 +27°C° 0 mm 2 mps 712 mmHg 38%
    05:00 +27°C° 0 mm 2 mps 712 mmHg 38%
    06:00 +28°C° 0 mm 2 mps 713 mmHg 36%
    07:00 +29°C° 0 mm 2 mps 713 mmHg 34%
    08:00 +31°C° 0 mm 3 mps 714 mmHg 31%
    09:00 +32°C° 0 mm 2 mps 714 mmHg 29%
    10:00 +35°C° 0 mm 2 mps 713 mmHg 27%
    11:00 +36°C° 0 mm 2 mps 713 mmHg 25%
    12:00 +37°C° 0 mm 2 mps 713 mmHg 24%
    13:00 +39°C° 0 mm 2 mps 712 mmHg 23%
    14:00 +40°C° 0 mm 2 mps 712 mmHg 21%
    15:00 +40°C° 0 mm 2 mps 711 mmHg 21%
    16:00 +40°C° 0 mm 2 mps 711 mmHg 20%
    17:00 +40°C° 0 mm 2 mps 710 mmHg 20%
    18:00 +37°C° 0 mm 1 mps 710 mmHg 24%
    19:00 +34°C° 0 mm 1 mps 710 mmHg 29%
    20:00 +32°C° 0 mm 1 mps 709 mmHg 33%
    21:00 +31°C° 0 mm 1 mps 710 mmHg 35%
    22:00 +30°C° 0 mm 1 mps 710 mmHg 36%
    23:00 +29°C° 0 mm 1 mps 711 mmHg 38%
    Show more